This demonstration page uses our WeatherBlox Daily Observations layout. Learn more.

Hourly Observations for March 17, 2020

Temp ( °F °C ) Dew Point ( °F °C ) Humidity (%) Winds ( mph kmh ) Pressure ( in mb ) Visibility ( mi km ) Precip ( " mm )
12:15 am 00:15 Cloudy 45 7 36 2 71 71 S 10 17 30.34 1027 10 16.0934 0 0
12:35 am 00:35 Cloudy 45 7 36 2 71 71 S 10 17 30.33 1027 10 16.0934 0 0
12:55 am 00:55 Mostly Cloudy 45 7 36 2 71 71 S 9 15 30.33 1027 10 16.0934 0 0
1:15 am 01:15 Cloudy 45 7 36 2 71 71 S 10 17 30.32 1027 10 16.0934 0 0
1:35 am 01:35 Cloudy 45 7 36 2 71 71 S 9 15 30.32 1027 10 16.0934 0 0
1:55 am 01:55 Cloudy 45 7 36 2 71 71 S 8 13 30.3 1026 10 16.0934 0 0
2:15 am 02:15 Cloudy 45 7 37 3 76 76 S 7 11 30.3 1026 10 16.0934 0 0
2:35 am 02:35 Cloudy 45 7 37 3 76 76 S 8 13 30.29 1026 10 16.0934 0 0
2:55 am 02:55 Cloudy 45 7 37 3 76 76 S 8 13 30.28 1025 10 16.0934 0 0
3:15 am 03:15 Cloudy 45 7 37 3 76 76 S 9 15 30.27 1025 10 16.0934 0 0
3:35 am 03:35 Cloudy 43 6 37 3 81 81 S 6 9 30.27 1025 10 16.0934 0 0
3:55 am 03:55 Cloudy 43 6 37 3 81 81 S 6 9 30.25 1024 10 16.0934 0 0
4:15 am 04:15 Cloudy 43 6 37 3 81 81 S 6 9 30.25 1024 10 16.0934 0 0
4:35 am 04:35 Cloudy 43 6 37 3 81 81 S 6 9 30.24 1024 10 16.0934 0 0
4:55 am 04:55 Cloudy 43 6 37 3 81 81 S 6 9 30.23 1024 10 16.0934 0 0
5:15 am 05:15 Cloudy 43 6 39 4 87 87 S 7 11 30.22 1023 10 16.0934 0 0
5:35 am 05:35 Cloudy 43 6 39 4 87 87 S 7 11 30.22 1023 10 16.0934 0 0
5:55 am 05:55 Cloudy 43 6 41 5 93 93 S 8 13 30.21 1023 10 16.0934 0 0
6:15 am 06:15 Cloudy 43 6 41 5 93 93 S 6 9 30.21 1023 10 16.0934 0 0
6:35 am 06:35 Cloudy 43 6 41 5 93 93 S 6 9 30.22 1023 10 16.0934 0 0
6:55 am 06:55 Cloudy 43 6 41 5 93 93 S 7 11 30.22 1023 10 16.0934 0 0
7:15 am 07:15 Cloudy 43 6 41 5 93 93 S 9 15 30.21 1023 10 16.0934 0 0
7:35 am 07:35 Cloudy 41 5 41 5 100 100 S 7 11 30.22 1023 10 16.0934 0 0
7:55 am 07:55 Cloudy 41 5 41 5 100 100 S 7 11 30.22 1023 10 16.0934 0 0
8:15 am 08:15 Cloudy 41 5 41 5 100 100 S 7 11 30.21 1023 10 16.0934 0 0
8:35 am 08:35 Cloudy 43 6 41 5 93 93 S 7 11 30.21 1023 10 16.0934 0 0
8:55 am 08:55 Cloudy 43 6 41 5 93 93 S 8 13 30.21 1023 10 16.0934 0 0
9:15 am 09:15 Cloudy 43 6 41 5 93 93 S 8 13 30.21 1023 10 16.0934 0 0
9:35 am 09:35 Cloudy 43 6 41 5 93 93 S 7 11 30.21 1023 10 16.0934 0 0
10:15 am 10:15 Cloudy 45 7 41 5 87 87 SSW 5 7 30.2 1023 10 16.0934 0 0
10:35 am 10:35 Cloudy 45 7 41 5 87 87 S 6 9 30.2 1023 10 16.0934 0 0
10:55 am 10:55 Cloudy 45 7 43 6 93 93 SSW 3 6 30.2 1023 10 16.0934 0 0
11:15 am 11:15 Partly Cloudy 46 8 43 6 87 87 WSW 3 6 30.19 1022 10 16.0934 0 0
11:35 am 11:35 Mostly Cloudy 48 9 43 6 82 82 SSW 7 11 30.19 1022 10 16.0934 0 0
11:55 am 11:55 Mostly Cloudy 50 10 45 7 82 82 S 6 9 30.18 1022 10 16.0934 0 0
12:15 pm 12:15 Partly Cloudy 52 11 45 7 77 77 Calm 30.16 1021 10 16.0934 0 0
12:55 pm 12:55 Mostly Cloudy 54 12 45 7 72 72 Calm 30.16 1021 10 16.0934 0 0
1:15 pm 13:15 Cloudy 54 12 45 7 72 72 SW 5 7 30.15 1021 10 16.0934 0 0
1:35 pm 13:35 Cloudy 55 13 45 7 67 67 W 6 9 30.15 1021 10 16.0934 0 0
2:15 pm 14:15 Mostly Cloudy 57 14 46 8 67 67 SSW 7 11 30.13 1020 10 16.0934 0 0
2:35 pm 14:35 Sunny 61 16 46 8 59 59 Calm 30.12 1020 10 16.0934 0 0
2:55 pm 14:55 Partly Cloudy 61 16 46 8 59 59 W 7 11 30.12 1020 10 16.0934 0 0
3:15 pm 15:15 Mostly Cloudy 61 16 46 8 59 59 SW 3 6 30.11 1020 10 16.0934 0 0
3:35 pm 15:35 Cloudy 63 17 46 8 56 56 Calm 30.11 1019 10 16.0934 0 0
3:55 pm 15:55 Cloudy 61 16 46 8 59 59 W 3 6 30.11 1020 10 16.0934 0 0
4:15 pm 16:15 Cloudy 63 17 46 8 56 56 NNE 7 11 30.11 1019 10 16.0934 0 0
4:35 pm 16:35 Cloudy 61 16 46 8 59 59 N 6 9 30.11 1020 10 16.0934 0 0
4:55 pm 16:55 Cloudy 61 16 46 8 59 59 NNW 6 9 30.12 1020 10 16.0934 0 0
5:15 pm 17:15 Cloudy 61 16 48 9 63 63 NNW 3 6 30.12 1020 10 16.0934 0 0
5:35 pm 17:35 Cloudy 61 16 48 9 63 63 NW 9 15 30.13 1020 10 16.0934 0 0
5:55 pm 17:55 Cloudy 61 16 48 9 63 63 NW 8 13 30.14 1021 10 16.0934 0 0
6:15 pm 18:15 Cloudy 61 16 48 9 63 63 NW 8 13 30.14 1021 10 16.0934 0 0
6:35 pm 18:35 Cloudy 61 16 48 9 63 63 NNW 9 15 30.16 1021 10 16.0934 0 0
6:55 pm 18:55 Mostly Cloudy 61 16 46 8 59 59 NNW 15 24 30.17 1022 10 16.0934 0 0
7:15 pm 19:15 Mostly Cloudy 59 15 46 8 63 63 N 9 15 30.18 1022 10 16.0934 0 0
7:35 pm 19:35 Mostly Cloudy 57 14 46 8 67 67 NNE 6 9 30.2 1023 10 16.0934 0 0
7:55 pm 19:55 Cloudy 55 13 46 8 72 72 N 6 9 30.21 1023 10 16.0934 0 0
8:15 pm 20:15 Cloudy 55 13 46 8 72 72 N 8 13 30.23 1024 10 16.0934 0 0
8:35 pm 20:35 Partly Cloudy 54 12 45 7 72 72 N 16 26 30.24 1024 10 16.0934 0 0
8:55 pm 20:55 Partly Cloudy 54 12 43 6 67 67 N 10 17 30.26 1025 10 16.0934 0 0
9:15 pm 21:15 Clear 52 11 43 6 72 72 N 10 17 30.27 1025 10 16.0934 0 0
9:35 pm 21:35 Partly Cloudy 52 11 43 6 72 72 NNW 13 20 30.26 1025 10 16.0934 0 0
9:55 pm 21:55 Clear 50 10 43 6 76 76 NNW 17 28 30.27 1025 10 16.0934 0 0
10:15 pm 22:15 Clear 50 10 43 6 76 76 undefined N/A 30.29 1026 10 16.0934 0 0
10:35 pm 22:35 Clear 50 10 41 5 71 71 NNE 3 6 30.3 1026 10 16.0934 0 0
10:55 pm 22:55 Clear 50 10 41 5 71 71 ESE 7 11 30.31 1026 10 16.0934 0 0
11:15 pm 23:15 Clear 48 9 41 5 76 76 N 3 6 30.32 1027 10 16.0934 0 0
11:35 pm 23:35 Mostly Cloudy 50 10 41 5 71 71 NNE 5 7 30.33 1027 10 16.0934 0 0
11:55 pm 23:55 Mostly Cloudy 50 10 39 4 67 67 NNE 7 11 30.34 1027 10 16.0934 0 0

Powered by AerisWeather